Location: Wapato
(46.4478°N, 120.4212°W)
Time: 04:02:53
(UTC+00:00)

ACS3 Solar Sail - Visible Passes

Search period start: 15 April 2026 00:00
Search period end: 25 April 2026 00:00
Orbit: 871 x 977 km, 97.2° (Epoch: 14 April)

Date Brightness Start Highest point End Pass type
(mag) Time Alt. Az. Time Alt. Az. Time Alt. Az.
15 Apr 2.5 08:42:59 10° NNE 08:48:08 43° E 08:48:08 43° E visible
15 Apr 2.6 10:25:41 10° N 10:31:00 34° WNW 10:31:42 33° W visible
16 Apr 2.2 08:52:38 10° NNE 08:58:07 53° E 08:58:07 53° E visible
16 Apr 2.8 10:35:36 10° N 10:40:39 29° WNW 10:41:41 27° W visible
17 Apr 1.9 09:02:19 10° NNE 09:08:05 64° E 09:08:05 64° E visible
17 Apr 3.0 10:45:33 10° N 10:50:16 25° WNW 10:51:39 23° W visible
18 Apr 4.0 07:32:12 10° ENE 07:34:28 13° E 07:34:28 13° E visible
18 Apr 1.7 09:12:02 10° NNE 09:18:02 77° E 09:18:02 77° E visible
18 Apr 3.2 10:55:33 10° NNW 10:59:53 21° WNW 11:01:36 19° W visible
19 Apr 3.8 07:41:09 10° NE 07:44:25 16° E 07:44:25 16° E visible
19 Apr 1.6 09:21:45 10° NNE 09:27:52 90° WNW 09:27:59 87° SSW visible
19 Apr 3.4 11:05:36 10° NNW 11:09:28 18° WNW 11:11:34 15° W visible
20 Apr 3.6 07:50:21 10° NE 07:54:22 19° E 07:54:22 19° E visible
20 Apr 1.6 09:31:29 10° N 09:37:35 76° WNW 09:37:56 74° WSW visible
20 Apr 3.6 11:15:46 10° NNW 11:19:01 15° NW 11:21:30 12° W visible
21 Apr 3.3 07:59:42 10° NE 08:04:19 23° E 08:04:19 23° E visible
21 Apr 1.8 09:41:15 10° N 09:47:17 64° WNW 09:47:53 61° WSW visible
21 Apr 3.8 11:26:05 10° NNW 11:28:33 13° NW 11:31:03 10° WNW visible
22 Apr 3.1 08:09:08 10° NNE 08:14:14 28° E 08:14:14 28° E visible
22 Apr 2.0 09:51:02 10° N 09:56:58 54° WNW 09:57:48 50° W visible
22 Apr 3.9 11:36:54 10° NW 11:38:04 11° NW 11:39:14 10° WNW visible
23 Apr 2.8 08:18:38 10° NNE 08:24:06 33° E 08:24:10 33° E visible
23 Apr 2.2 10:00:52 10° N 10:06:37 45° WNW 10:07:44 41° W visible
24 Apr 2.6 08:28:11 10° NNE 08:33:54 40° E 08:34:05 40° E visible
24 Apr 2.5 10:10:41 10° N 10:16:15 38° WNW 10:17:39 34° W visible
